Location: 22
(39.7117°N, 89.5929°W)
Time: 18:06:30
(UTC-05:00)

Vanguard 3 - Pass Details

Date: 06 February 2023
Orbit: 508 x 3249 km, 33.4° (Epoch: 30 March)

Event Time Altitude Azimuth Distance (km) Brightness Sun altitude
Rises 01:44:44 0° 275° (W) 6,489 - -58.6°
Reaches altitude 10° 01:50:52 10° 259° (W) 5,830 - -57.8°
Maximum altitude 02:01:38 19° 224° (SW) 5,434 - -56.2°
Drops below altitude 10° 02:12:58 10° 188° (S) 6,084 - -54.4°
Exits shadow 02:19:21 - 173° (S) 6,793 11.7 -53.4°
Sets 02:19:49 0° 172° (S) 6,852 11.7 -53.3°
